TimeCDT,TemperatureF,Dew PointF,Humidity,Sea Level PressureIn,VisibilityMPH,Wind Direction,Wind SpeedMPH,Gust SpeedMPH,PrecipitationIn,Events,Conditions,WindDirDegrees,DateUTC
12:54 AM,75.0,68.0,79,29.86,10.0,SW,6.9,-,N/A,,Clear,230,2013-06-12 05:54:00
1:54 AM,75.9,69.1,79,29.86,10.0,SW,5.8,-,N/A,,Clear,230,2013-06-12 06:54:00
2:54 AM,77.0,69.1,76,29.86,10.0,WSW,9.2,-,N/A,,Clear,240,2013-06-12 07:54:00
3:54 AM,75.9,69.1,79,29.88,10.0,WSW,5.8,-,N/A,,Clear,240,2013-06-12 08:54:00
4:54 AM,73.0,69.1,87,29.88,10.0,SW,6.9,-,N/A,,Clear,230,2013-06-12 09:54:00
5:54 AM,73.9,69.1,85,29.88,10.0,SW,6.9,-,N/A,,Clear,230,2013-06-12 10:54:00
6:54 AM,79.0,69.1,72,29.91,10.0,WSW,8.1,-,N/A,,Clear,250,2013-06-12 11:54:00
7:54 AM,80.1,70.0,71,29.90,10.0,WSW,8.1,-,N/A,,Clear,240,2013-06-12 12:54:00
8:54 AM,81.0,69.1,67,29.91,10.0,WSW,9.2,-,N/A,,Clear,250,2013-06-12 13:54:00
9:54 AM,84.9,69.1,59,29.89,10.0,WSW,16.1,21.9,N/A,,Clear,250,2013-06-12 14:54:00
10:54 AM,87.1,70.0,57,29.88,10.0,WSW,12.7,-,N/A,,Clear,240,2013-06-12 15:54:00
11:54 AM,89.1,69.1,52,29.83,10.0,WSW,11.5,-,N/A,,Clear,250,2013-06-12 16:54:00
12:54 PM,91.0,71.1,52,29.78,10.0,SSW,15.0,23.0,N/A,,Clear,210,2013-06-12 17:54:00
1:54 PM,93.0,70.0,47,29.75,10.0,SSW,19.6,25.3,N/A,,Clear,210,2013-06-12 18:54:00
2:54 PM,93.0,66.9,42,29.75,10.0,SW,21.9,29.9,N/A,,Clear,220,2013-06-12 19:54:00
3:54 PM,93.0,69.1,45,29.74,10.0,SW,23.0,33.4,N/A,,Partly Cloudy,230,2013-06-12 20:54:00
4:54 PM,93.9,68.0,43,29.72,10.0,WSW,19.6,32.2,N/A,,Scattered Clouds,240,2013-06-12 21:54:00
5:54 PM,91.0,68.0,47,29.70,10.0,SW,23.0,29.9,N/A,,Scattered Clouds,230,2013-06-12 22:54:00
6:54 PM,91.0,68.0,47,29.66,10.0,SW,21.9,29.9,N/A,,Scattered Clouds,230,2013-06-12 23:54:00
7:54 PM,90.0,69.1,50,29.65,10.0,SW,20.7,27.6,N/A,,Mostly Cloudy,220,2013-06-13 00:54:00
8:54 PM,89.1,69.1,52,29.64,10.0,WSW,21.9,29.9,N/A,,Mostly Cloudy,240,2013-06-13 01:54:00
9:54 PM,88.0,69.1,53,29.67,10.0,WSW,13.8,-,N/A,,Overcast,250,2013-06-13 02:54:00
10:54 PM,86.0,69.1,57,29.67,10.0,WSW,11.5,-,N/A,,Mostly Cloudy,250,2013-06-13 03:54:00
11:54 PM,84.0,69.1,61,29.68,10.0,West,10.4,19.6,N/A,,Clear,260,2013-06-13 04:54:00